TimeMST,TemperatureF,Dew PointF,Humidity,Sea Level PressureIn,VisibilityMPH,Wind Direction,Wind SpeedMPH,Gust SpeedMPH,PrecipitationIn,Events,Conditions,WindDirDegrees,DateUTC
12:53 AM,30.0,25.0,82,30.38,10.0,NW,6.9,-,N/A,,Clear,320,2013-11-07 07:53:00
1:53 AM,28.0,26.1,92,30.38,10.0,SSW,3.5,-,N/A,,Clear,210,2013-11-07 08:53:00
2:53 AM,28.9,25.0,85,30.37,10.0,West,3.5,-,N/A,,Clear,270,2013-11-07 09:53:00
3:53 AM,21.9,21.0,96,30.41,10.0,Calm,Calm,-,N/A,,Clear,0,2013-11-07 10:53:00
4:53 AM,21.9,19.9,92,30.43,10.0,East,4.6,-,N/A,,Clear,80,2013-11-07 11:53:00
5:53 AM,24.1,21.9,91,30.40,10.0,ESE,3.5,-,N/A,,Clear,120,2013-11-07 12:53:00
6:53 AM,21.9,19.9,92,30.44,10.0,ENE,6.9,-,N/A,,Clear,70,2013-11-07 13:53:00
7:53 AM,30.0,27.0,88,30.41,10.0,ESE,3.5,-,N/A,,Clear,120,2013-11-07 14:53:00
8:53 AM,35.1,28.0,76,30.41,10.0,SE,5.8,-,N/A,,Clear,140,2013-11-07 15:53:00
9:53 AM,42.1,30.0,62,30.37,10.0,Calm,Calm,-,N/A,,Clear,0,2013-11-07 16:53:00
10:53 AM,48.9,32.0,52,30.32,10.0,Calm,Calm,-,N/A,,Clear,0,2013-11-07 17:53:00
11:53 AM,53.1,32.0,45,30.27,10.0,SSW,4.6,-,N/A,,Clear,200,2013-11-07 18:53:00
12:53 PM,55.9,30.9,39,30.22,10.0,WSW,8.1,-,N/A,,Clear,240,2013-11-07 19:53:00
1:53 PM,54.0,28.9,38,30.20,10.0,West,10.4,-,N/A,,Scattered Clouds,260,2013-11-07 20:53:00
2:53 PM,53.1,30.0,41,30.18,10.0,SW,5.8,-,N/A,,Mostly Cloudy,230,2013-11-07 21:53:00
3:53 PM,50.0,33.1,52,30.18,10.0,South,3.5,-,N/A,,Partly Cloudy,180,2013-11-07 22:53:00
4:53 PM,48.0,34.0,58,30.16,10.0,SE,6.9,-,N/A,,Overcast,140,2013-11-07 23:53:00
5:53 PM,46.9,34.0,61,30.13,10.0,SSE,8.1,-,N/A,,Overcast,150,2013-11-08 00:53:00
6:53 PM,46.9,32.0,56,30.10,10.0,ESE,8.1,-,N/A,,Overcast,120,2013-11-08 01:53:00
7:53 PM,45.0,28.9,53,30.06,10.0,South,8.1,-,N/A,,Clear,190,2013-11-08 02:53:00
8:53 PM,46.0,27.0,47,30.01,10.0,South,6.9,-,N/A,,Clear,180,2013-11-08 03:53:00
9:53 PM,44.1,26.1,49,29.96,10.0,SSE,9.2,-,N/A,,Clear,160,2013-11-08 04:53:00
10:53 PM,41.0,26.1,55,29.92,10.0,East,4.6,-,N/A,,Clear,80,2013-11-08 05:53:00
11:53 PM,41.0,27.0,57,29.86,10.0,ENE,5.8,-,N/A,,Clear,60,2013-11-08 06:53:00